Home > Weather > Chandler > Past weeks

Flag for USA Past Weather in Chandler, Arizona, USA — Yesterday and Last 2 Weeks

Now
66 °F

Clear.


Feels Like: 66 °F
Forecast: 63 / 86 °F
Wind: 6 mph from Southeast

Location: Williams Gateway Airport

Current Time: May 24, 2016 at 3:03:44 AM

Latest Report: May 24, 2016 at 2:35 AM


Visibility: 10 mi

Pressure: 29.82 "Hg

Humidity: 22%

Dew Point: 27 °F

Location of ChandlerLocation

Past Weather in Chandler — Graph

°F

Chandler Temperature Yesterday

Maximum temperature yesterday: 88 °F (at 3:50 PM)
Minimum temperature yesterday: 59 °F (at 4:15 AM)
Average temperature yesterday: 72 °F

High & Low Weather Summary for the Past Weeks

 TemperatureHumidityPressure
High100 °F (May 13, 2:47 PM)60% (May 19, 1:35 AM)30.03 "Hg (May 19, 1:35 AM)
Low55 °F (May 9, 3:35 AM)7% (May 12, 12:50 PM)29.68 "Hg (May 15, 4:50 PM)
Average75 °F27%29.86 "Hg
* Reported May 9 2:15 AM — May 24 2:15 AM, Chandler, Weather by CustomWeather, © 2016

Note: Actual official high and low records may vary slightly from our data, if they occured in-between our weather recording intervals... More about our weather records

Advertising

Chandler Weather History for the Previous 24 Hours

Scroll right to see more
 ConditionsComfort  
Time TempWeatherWind HumidityBarometerVisibility
2:15 AM
Tue, May 24
68 °FClear.6 mph23%29.81 "Hg10 mi
1:35 AM68 °FClear.5 mph18%29.80 "Hg10 mi
1:15 AM72 °FClear.7 mph16%29.80 "Hg10 mi
12:55 AM72 °FClear.12 mph15%29.80 "Hg10 mi
12:35 AM73 °FClear.14 mph14%29.80 "Hg10 mi
12:15 AM72 °FClear.No wind20%29.80 "Hg10 mi
11:47 PM
Mon, May 23
72 °FClear.3 mph22%29.79 "Hg20 mi
10:47 PM73 °FClear.7 mph20%29.79 "Hg20 mi
9:47 PM75 °FClear.3 mph16%29.78 "Hg20 mi
8:47 PM81 °FClear.6 mph14%29.75 "Hg45 mi
7:47 PM82 °FClear.6 mph12%29.73 "Hg20 mi
6:47 PM86 °FSunny.7 mph11%29.72 "Hg45 mi
5:52 PM88 °FSunny.8 mph11%29.73 "Hg45 mi
4:47 PM88 °FSunny.10 mph11%29.74 "Hg45 mi
3:50 PM88 °FSunny.9 mph10%29.76 "Hg45 mi
2:47 PM84 °FSunny.8 mph11%29.78 "Hg45 mi
1:52 PM84 °FSunny.9 mph11%29.81 "Hg45 mi
12:55 PM82 °FSunny.5 mph12%29.83 "Hg45 mi
11:47 AM81 °FSunny.6 mph14%29.85 "Hg45 mi
10:47 AM79 °FSunny.9 mph15%29.87 "Hg30 mi
9:47 AM77 °FSunny.5 mph15%29.87 "Hg45 mi
8:47 AM73 °FSunny.6 mph19%29.88 "Hg45 mi
7:47 AM70 °FSunny.10 mph25%29.87 "Hg45 mi
6:47 AM63 °FSunny.8 mph32%29.87 "Hg45 mi
5:47 AM59 °FSunny.7 mph31%29.85 "Hg45 mi
4:48 AM61 °FClear.7 mph29%29.84 "Hg20 mi
4:35 AM59 °FClear.9 mph34%29.84 "Hg10 mi
4:15 AM59 °FClear.7 mph36%29.85 "Hg10 mi
3:55 AM61 °FClear.7 mph34%29.85 "Hg10 mi
3:35 AM61 °FClear.7 mph34%29.84 "Hg10 mi
3:15 AM64 °FClear.No wind28%29.84 "Hg10 mi
Weather by CustomWeather, © 2016

See weather overviewHow to use our weather pages